Terug naar catalogus

DELTA 1 DEB

ActiefPO
NORAD 21501·DEBRIS·🇺🇸 United States

Gelanceerd Jun 12, 1975 vanaf Vandenberg Space Force Base

Loading…

Volgende Passages (komende 24 uur)

TLE

VersSource: Space-Track

Epoch: Sep 14, 2026, 14:47 UTC

1 21501U 75052FW  26257.61638515  .00000130  00000-0  63960-3 0  9996
2 21501  99.7893 137.3818 0551016   9.4040  18.0756 12.47855365608515

Volg DELTA 1 DEB in realtime met AllMySat

Download on the App Store